Weather History for Grayling, MI

Change the Weather History Date:

Tuesday, May 14, 2013

  Actual Average (KHTL) Record (KHTL)
Temperature  
Mean Temperature 52 °F 53 °F  
Max Temperature 68 °F 66 °F 87 °F (1932)
Min Temperature 35 °F 41 °F 22 °F (1943)
Degree Days  
Heating Degree Days 14 12  
Month to date heating degree days 195  
Since 1 July heating degree days 7856  
Cooling Degree Days 0 0  
Month to date cooling degree days 0  
Year to date cooling degree days 2  
Growing Degree Days 2 (Base 50)    
Moisture  
Dew Point 35 °F    
Average Humidity 56    
Maximum Humidity 89    
Minimum Humidity 36    
Precipitation  
Precipitation 0.00 in 0.09 in 0.96 in (1937)
Month to date precipitation 1.18  
Year to date precipitation 8.22  
Sea Level Pressure  
Sea Level Pressure 29.86 in    
Wind  
Wind Speed 5 mph (SE)    
Max Wind Speed 16 mph    
Max Gust Speed 23 mph    
Visibility 10 miles    
Events Rain    
T = Trace of Precipitation, MM = Missing Value Source: NWS Daily Summary

Daily Weather History Graph

Daily Weather History Graph

Search for Another Location

Airport:

Trip Planner

Search our weather history database for the weather conditions in past years. The results will help you decide how hot, cold, wet, or windy it might be!

Date:

Astronomy

May. 14, 2013 Rise Set
Actual Time 6:11 AM EDT 8:59 PM EDT
Civil Twilight 5:37 AM EDT 9:33 PM EDT
Nautical Twilight 4:55 AM EDT 10:16 PM EDT
Astronomical Twilight 4:05 AM EDT 11:06 PM EDT
Moon 9:51 AM EDT (5/14) 12:07 AM EDT (5/14)
Length of Visible Light 15h 55m
Length of Day
14h 47m
Waxing Crescent, 19% of the Moon is Illuminated
May 14
Waxing Crescent
May 18
First Quarter
May 25
Full
May 31
Last Quarter
Jun 8
New

Hourly Weather History & Observations

Time (EDT) Temp. Windchill Dew Point Humidity Pressure Visibility Wind Dir Wind Speed Gust Speed Precip Events Conditions
12:15 AM 35.8 °F - 32.0 °F 86% 30.03 in 10.0 mi Calm Calm - N/A   Scattered Clouds
12:35 AM 35.8 °F - 32.9 °F 89% 30.03 in 10.0 mi Calm Calm - N/A   Mostly Cloudy
12:54 AM 37.9 °F - 32.5 °F 81% 30.03 in 10.0 mi Calm Calm - N/A   Overcast
1:15 AM 37.4 °F - 33.8 °F 87% 30.03 in 10.0 mi Calm Calm - N/A   Overcast
1:35 AM 38.3 °F - 33.1 °F 81% 30.02 in 10.0 mi Calm Calm - N/A   Overcast
1:54 AM 37.8 °F - 32.7 °F 82% 30.03 in 10.0 mi Calm Calm - N/A   Overcast
2:15 AM 38.3 °F 35.9 °F 33.3 °F 82% 30.03 in 10.0 mi SSW 3.5 mph - N/A   Overcast
2:35 AM 38.3 °F - 31.8 °F 77% 30.03 in 10.0 mi Calm Calm - N/A   Overcast
2:54 AM 39.4 °F - 31.5 °F 73% 30.02 in 10.0 mi Calm Calm - N/A   Overcast
3:15 AM 40.5 °F - 30.9 °F 69% 30.01 in 10.0 mi Calm Calm - N/A   Overcast
3:35 AM 39.6 °F - 32.2 °F 75% 30.00 in 10.0 mi Calm Calm - N/A   Light Drizzle
3:54 AM 39.7 °F 35.6 °F 32.0 °F 74% 29.97 in 10.0 mi SE 5.8 mph - N/A   Overcast
4:15 AM 41.0 °F 37.1 °F 29.8 °F 64% 29.95 in 10.0 mi ESE 5.8 mph - N/A   Overcast
4:35 AM 40.5 °F 36.5 °F 30.4 °F 67% 29.95 in 10.0 mi ESE 5.8 mph - N/A   Overcast
4:54 AM 40.1 °F 34.7 °F 29.7 °F 66% 29.94 in 10.0 mi ESE 8.1 mph - N/A   Light Drizzle
5:15 AM 41.0 °F 38.0 °F 29.8 °F 64% 29.94 in 10.0 mi ESE 4.6 mph - N/A   Drizzle
5:35 AM 41.0 °F 35.8 °F 30.4 °F 66% 29.93 in 10.0 mi SE 8.1 mph - N/A Rain Light Rain
5:54 AM 41.0 °F 35.8 °F 30.0 °F 65% 29.92 in 10.0 mi SE 8.1 mph - N/A   Overcast
6:15 AM 40.6 °F 36.0 °F 30.7 °F 68% 29.94 in 10.0 mi East 6.9 mph - N/A   Overcast
6:35 AM 39.9 °F 35.8 °F 31.5 °F 72% 29.95 in 10.0 mi East 5.8 mph - N/A Rain Light Rain
6:54 AM 39.6 °F 34.7 °F 31.5 °F 73% 29.95 in 10.0 mi ESE 6.9 mph - N/A   Light Drizzle
7:15 AM 39.6 °F 36.3 °F 31.6 °F 73% 29.96 in 10.0 mi ESE 4.6 mph - N/A   Overcast
7:35 AM 39.7 °F 34.9 °F 31.5 °F 72% 29.96 in 10.0 mi East 6.9 mph - N/A   Overcast
7:54 AM 41.0 °F 34.3 °F 30.9 °F 67% 29.93 in 10.0 mi SE 11.5 mph - N/A   Overcast
8:15 AM 41.5 °F 35.4 °F 30.2 °F 64% 29.91 in 10.0 mi SE 10.4 mph - N/A   Overcast
8:35 AM 42.8 °F 36.6 °F 29.8 °F 60% 29.90 in 10.0 mi SE 11.5 mph - N/A   Overcast
8:54 AM 44.2 °F 38.4 °F 30.9 °F 60% 29.89 in 10.0 mi SE 11.5 mph - N/A   Overcast
9:15 AM 45.9 °F 39.7 °F 31.8 °F 58% 29.88 in 10.0 mi SE 13.8 mph 18.4 mph N/A   Overcast
9:35 AM 48.4 °F - 32.2 °F 54% 29.87 in 10.0 mi SE 13.8 mph 21.9 mph N/A   Overcast
9:54 AM 48.4 °F - 31.8 °F 53% 29.86 in 10.0 mi SE 13.8 mph 21.9 mph N/A   Overcast
10:15 AM 49.6 °F - 32.0 °F 51% 29.85 in 10.0 mi SE 10.4 mph 23.0 mph N/A   Overcast
10:35 AM 53.6 °F - 34.0 °F 47% 29.84 in 10.0 mi SE 16.1 mph 19.6 mph N/A   Overcast
10:55 AM 53.6 °F - 32.5 °F 45% 29.83 in 10.0 mi SE 16.1 mph 20.7 mph N/A   Scattered Clouds
11:15 AM 55.9 °F - 33.8 °F 43% 29.82 in 10.0 mi SE 15.0 mph 23.0 mph N/A   Clear
11:35 AM 58.5 °F - 34.5 °F 41% 29.83 in 10.0 mi SSE 13.8 mph 20.7 mph N/A   Clear
11:55 AM 58.5 °F - 33.8 °F 39% 29.84 in 10.0 mi SSE 12.7 mph 21.9 mph N/A   Clear
12:15 PM 58.5 °F - 33.6 °F 39% 29.84 in 10.0 mi South 12.7 mph 19.6 mph N/A   Clear
12:35 PM 59.2 °F - 34.3 °F 39% 29.84 in 10.0 mi SSE 12.7 mph 17.3 mph N/A   Clear
12:55 PM 59.9 °F - 34.2 °F 38% 29.83 in 10.0 mi South 11.5 mph 17.3 mph N/A   Clear
1:15 PM 60.4 °F - 34.2 °F 37% 29.83 in 10.0 mi SSE 5.8 mph 10.4 mph N/A   Clear
1:34 PM 60.1 °F - 34.3 °F 38% 29.83 in 10.0 mi South 8.1 mph - N/A   Clear
1:55 PM 61.0 °F - 35.1 °F 38% 29.83 in 10.0 mi SSE 6.9 mph - N/A   Clear
2:15 PM 61.0 °F - 35.1 °F 38% 29.82 in 10.0 mi SSE 9.2 mph 17.3 mph N/A   Clear
2:34 PM 60.4 °F - 34.7 °F 38% 29.82 in 10.0 mi South 5.8 mph - N/A   Clear
2:55 PM 60.8 °F - 35.6 °F 39% 29.82 in 10.0 mi SE 6.9 mph - N/A   Clear
3:15 PM 61.0 °F - 35.6 °F 39% 29.82 in 10.0 mi SSE 3.5 mph - N/A   Clear
3:34 PM 61.5 °F - 35.6 °F 38% 29.81 in 10.0 mi SSE 8.1 mph - N/A   Clear
3:55 PM 62.1 °F - 36.7 °F 39% 29.80 in 10.0 mi ESE 5.8 mph - N/A   Clear
4:15 PM 65.1 °F - 37.9 °F 37% 29.81 in 10.0 mi SSE 9.2 mph - N/A   Clear
4:34 PM 64.6 °F - 36.9 °F 36% 29.81 in 10.0 mi SE 3.5 mph - N/A   Clear
4:55 PM 63.5 °F - 36.1 °F 36% 29.80 in 10.0 mi Calm Calm - N/A   Clear
5:15 PM 65.3 °F - 37.9 °F 36% 29.79 in 10.0 mi SE 4.6 mph - N/A   Clear
5:34 PM 66.0 °F - 38.8 °F 37% 29.78 in 10.0 mi South 6.9 mph - N/A   Clear
5:55 PM 66.0 °F - 39.9 °F 38% 29.78 in 10.0 mi SSE 6.9 mph - N/A   Clear
6:15 PM 67.8 °F - 40.8 °F 37% 29.76 in 10.0 mi South 8.1 mph - N/A   Clear
6:34 PM 68.4 °F - 41.0 °F 37% 29.76 in 10.0 mi SE 8.1 mph - N/A   Clear
6:55 PM 66.7 °F - 40.3 °F 38% 29.75 in 10.0 mi SE 6.9 mph - N/A   Clear
7:15 PM 66.2 °F - 40.3 °F 39% 29.75 in 10.0 mi SE 8.1 mph - N/A   Clear
7:34 PM 63.5 °F - 40.5 °F 43% 29.74 in 10.0 mi SSE 5.8 mph - N/A   Clear
7:55 PM 62.4 °F - 39.6 °F 43% 29.73 in 10.0 mi SE 11.5 mph 16.1 mph N/A   Scattered Clouds
8:14 PM 61.2 °F - 39.6 °F 45% 29.72 in 10.0 mi SE 12.7 mph 20.7 mph N/A   Scattered Clouds
8:35 PM 59.0 °F - 41.0 °F 51% 29.72 in 10.0 mi ESE 9.2 mph - N/A   Clear
8:55 PM 58.5 °F - 41.9 °F 54% 29.71 in 10.0 mi SE 10.4 mph - N/A   Scattered Clouds
9:14 PM 57.4 °F - 41.7 °F 56% 29.71 in 10.0 mi SE 8.1 mph - N/A   Clear
9:35 PM 55.9 °F - 41.2 °F 58% 29.71 in 10.0 mi SE 11.5 mph - N/A   Clear
9:55 PM 55.9 °F - 42.1 °F 60% 29.72 in 10.0 mi SE 11.5 mph - N/A   Clear
10:14 PM 55.8 °F - 42.3 °F 60% 29.72 in 10.0 mi SE 11.5 mph 16.1 mph N/A   Scattered Clouds
10:35 PM 53.8 °F - 41.0 °F 62% 29.73 in 10.0 mi SSE 6.9 mph - N/A   Scattered Clouds
10:54 PM 53.6 °F - 40.8 °F 62% 29.73 in 10.0 mi SSE 8.1 mph - N/A Rain Rain
11:15 PM 53.6 °F - 42.8 °F 67% 29.71 in 10.0 mi SSE 6.9 mph - N/A   Scattered Clouds
11:35 PM 53.6 °F - 42.4 °F 66% 29.71 in 10.0 mi SSE 9.2 mph - N/A   Mostly Cloudy
11:54 PM 53.6 °F - 43.2 °F 68% 29.67 in 10.0 mi SE 8.1 mph 11.5 mph N/A   Scattered Clouds